Location: Chandrammap?lem
(16.9200°N, 81.0051°E)
Time: 06:26:32
(UTC+00:00)

ADEOS Rocket - Pass Details

Date: 29 May 2024
Orbit: 859 x 1305 km, 98.7° (Epoch: 19 June)

Event Time Altitude Azimuth Distance (km) Brightness Sun altitude
Rises 13:27:12 0° 172° (S) 3,593 5.6 -5.7°
Reaches altitude 10° 13:29:32 10° 174° (S) 2,699 5.0 -6.2°
Maximum altitude 13:35:36 73° 258° (WSW) 1,083 3.4 -7.5°
Drops below altitude 10° 13:42:23 10° 343° (NNW) 3,009 6.2 -8.9°
Sets 13:45:06 0° 345° (NNW) 4,033 6.9 -9.5°
